CW6488 Weather Reports


Display with metric or nautical units.
time (UTC)temp
F
wind
direction
speed
MPH
gust
MPH
rain 1hr
in
rain 24hr
in
rain mn
in
humidity
%
barometer
mb
20260510130021 68 148 0.0 0.0 0.00 1.04 0.00 95 1015.1
20260510124520 67 148 0.0 0.0 0.00 1.11 0.00 96 1015.1
20260510123020 67 153 0.0 0.0 0.00 1.40 0.00 95 1014.6
20260510121520 67 153 0.0 0.0 0.00 2.40 0.00 95 1014.5
20260510114519 66 153 0.0 0.0 0.00 2.41 0.00 96 1014.0
20260510113019 66 154 0.0 0.0 0.00 2.41 0.00 96 1013.5
20260510110019 66 157 0.0 0.0 0.00 2.41 0.00 95 1012.9
20260510103019 66 263 0.0 0.0 0.00 2.41 0.00 95 1012.4
20260510101518 67 263 0.0 0.0 0.00 2.41 0.00 95 1012.3
20260510100018 67 263 0.0 0.0 0.00 2.41 0.00 95 1012.2
20260510094518 67 263 0.0 0.0 0.00 2.41 0.00 95 1011.9
20260510091518 67 320 0.0 0.0 0.00 2.41 0.00 95 1012.1
20260510084518 67 321 0.0 0.0 0.00 2.41 0.00 95 1012.3
20260510083017 67 321 0.0 0.0 0.00 2.42 0.00 95 1012.0
20260510081517 67 321 0.0 0.0 0.00 2.42 0.00 96 1012.0
20260510080017 67 321 0.0 0.0 0.00 2.43 0.00 95 1011.9
20260510074517 67 321 0.0 0.0 0.00 2.44 0.00 95 1011.7
20260510071517 67 321 0.0 0.0 0.00 2.53 0.00 95 1011.5
20260510070016 68 321 0.0 0.0 0.00 2.53 0.00 96 1011.5
20260510064516 68 321 0.0 0.0 0.00 2.54 0.00 96 1011.7
20260510063016 68 321 0.0 0.0 0.00 2.54 0.00 95 1011.8
20260510060015 68 321 0.0 0.0 0.00 2.54 0.00 95 1012.0
20260510054515 68 321 0.0 0.0 0.00 2.54 0.00 95 1012.0
20260510053015 68 321 0.0 0.0 0.00 2.54 0.00 95 1011.9
20260510050044 68 321 0.0 0.0 0.00 2.57 0.00 95 1011.9
20260510044514 68 321 0.0 0.0 0.00 2.59 2.57 96 1011.8
20260510043044 69 321 0.0 0.0 0.00 2.59 2.57 95 1011.8
20260510041544 69 321 0.0 0.0 0.00 2.59 2.57 95 1011.7
20260510040043 69 321 0.0 0.0 0.00 2.59 2.57 95 1011.9
20260510033013 69 321 0.0 0.0 0.00 2.59 2.57 95 1012.0
20260510031544 69 320 0.0 0.0 0.00 2.59 2.57 95 1012.5
20260510030013 69 320 0.0 0.0 0.00 2.59 2.57 95 1012.2
20260510024513 69 320 0.0 0.0 0.00 2.59 2.57 95 1012.1
20260510023013 69 320 0.0 0.0 0.00 2.59 2.57 95 1011.9
20260510021542 69 319 0.0 0.0 0.00 2.59 2.57 95 1011.5
20260510020042 69 319 0.0 0.0 0.00 2.59 2.57 95 1011.9
20260510013042 69 318 0.0 0.0 0.02 2.59 2.57 95 1011.5
20260510010041 69 277 0.0 0.0 0.04 2.59 2.57 96 1010.7
20260510004541 69 33 0.0 0.0 0.04 2.58 2.56 96 1010.4
20260510003049 69 313 0.0 0.0 0.03 2.57 2.55 96 1011.1
20260510001542 68 312 3.0 0.0 0.01 2.55 2.53 95 1010.9
20260509234540 69 309 0.0 0.0 0.01 2.54 2.52 96 1011.1
20260509233040 68 309 0.0 0.0 0.02 2.54 2.52 96 1010.8
20260509231540 68 308 0.0 0.0 0.03 2.54 2.52 96 1010.9
20260509230039 68 308 0.0 0.0 0.04 2.53 2.51 96 1011.1
20260509224539 68 308 0.0 0.0 0.05 2.53 2.51 96 1011.1
20260509223039 68 308 0.0 0.0 0.04 2.56 2.50 96 1010.4
20260509221539 68 308 0.0 0.0 0.03 2.60 2.49 95 1010.3
20260509220039 68 306 0.0 0.0 0.01 2.61 2.47 95 1011.0
20260509214538 68 306 0.0 0.0 0.01 2.62 2.46 96 1010.4
20260509213038 68 306 0.0 0.0 0.03 2.63 2.46 96 1010.3
20260509211538 68 306 0.0 0.0 0.06 2.64 2.46 95 1010.3
20260509210038 68 306 0.0 0.0 0.10 2.68 2.46 95 1010.3
20260509204538 68 306 0.0 0.0 0.12 2.70 2.45 95 1009.6
20260509201537 68 145 0.0 0.0 0.16 2.70 2.40 96 1009.8
20260509200037 68 263 0.0 0.0 0.18 2.76 2.36 95 1011.2
20260509194537 67 188 0.0 0.0 0.19 2.79 2.33 95 1011.7
20260509193036 67 186 0.0 0.0 0.19 2.78 2.29 95 1011.7
20260509191536 67 184 0.0 0.0 0.15 2.79 2.24 95 1011.2
20260509190036 67 184 0.0 0.0 0.11 2.77 2.18 95 1011.1
20260509184536 67 186 0.0 0.0 0.08 2.76 2.14 95 1011.5
20260509183035 67 186 0.0 0.0 0.05 2.73 2.10 95 1011.6
20260509181535 67 259 0.0 0.0 0.05 2.74 2.09 95 1011.6
20260509180035 67 259 0.0 0.0 0.05 2.73 2.07 95 1011.4
20260509174534 67 261 0.0 0.0 0.05 2.72 2.06 95 1011.3
20260509173034 67 159 0.0 0.0 0.06 2.71 2.05 95 1011.0
20260509171534 66 173 0.0 0.0 0.06 2.70 2.04 95 1011.6
20260509170034 66 213 0.0 0.0 0.05 2.68 2.02 95 1011.4
20260509164533 66 214 0.0 0.0 0.08 2.67 2.01 95 1011.5
20260509163033 66 113 0.0 0.0 0.09 2.65 1.99 95 1011.4
20260509161534 66 170 1.0 0.0 0.10 2.64 1.98 95 1011.7
20260509160033 66 61 0.0 0.0 0.10 2.63 1.97 95 1011.7
20260509154533 66 57 2.0 0.0 0.07 2.59 1.93 95 1012.3
20260509151532 66 150 1.0 0.0 0.12 2.54 1.88 95 1012.0
20260509150032 66 107 0.0 0.0 0.19 2.53 1.87 95 1011.7
20260509144532 66 108 0.0 0.0 0.21 2.52 1.86 95 1011.5
20260509143032 67 96 0.0 0.0 0.22 2.48 1.82 95 1011.5
20260509140031 67 98 0.0 0.0 0.15 2.34 1.68 95 1011.9
20260509134531 67 98 0.0 0.0 0.19 2.36 1.65 95 1011.7
20260509133031 67 97 0.0 0.0 0.43 2.31 1.60 95 1011.5